Regional Weather Roundup
Issued by NWS

Home | Current Version | Previous Version | Text Only | Print | Product List | Glossary On
Versions: 1 2 3 4 5 6 7 8 9 10 11 12 13 14 15 16 17 18 19 20 21 22 23 24 25 26 27
000
ASUS44 KJAN 250320
RWRMS

MISSISSIPPI HOURLY WEATHER ROUNDUP
NATIONAL WEATHER SERVICE JACKSON MS
1000 PM CDT SAT SEP 24 2016

NOTE: "FAIR: INDICATES FEW OR NO CLOUDS BELOW 12,000 FEET WITH NO
SIGNIFICANT WEATHER AND/OR OBSTRUCTIONS TO VISIBILITY.

MSZ001>002-007>008-010>013-018>021-025>028-034>036-250400-
NORTHWEST MISSISSIPPI

CITY           SKY/WX    TMP DP  RH WIND       PRES   REMARKS
BATESVILLE     FAIR      73  69  88 CALM      30.01R
CLARKSDALE     CLEAR     75  72  88 CALM      30.00S
CLEVELAND      FAIR      78  72  82 CALM      29.99R
GREENWOOD      CLEAR     75  70  84 CALM      29.99R
GREENVILLE     CLEAR     78  68  71 CALM      29.99R
OXFORD         FAIR      75  63  64 SE3       30.03S
TUNICA         PTCLDY    77  66  69 NW5       30.02R
WINONA         FAIR      73  68  86 CALM      30.00R
$$

MSZ003>006-009-014>017-022>024-029>033-037>039-250400-
NORTHEAST MISSISSIPPI

CITY           SKY/WX    TMP DP  RH WIND       PRES   REMARKS
COLUMBUS AFB   CLEAR     75  68  78 NE2       29.99S
CORINTH        FAIR      72  66  83 CALM      30.02S
GOLDN TRIANGLE CLEAR     77  61  57 CALM      30.00S
STARKVILLE     FAIR      73  68  83 CALM      30.01S
TUPELO         CLEAR     77  64  64 N3        30.01S
$$

MSZ040-058-250400-
CENTRAL MISSISSIPPI

CITY           SKY/WX    TMP DP  RH WIND       PRES   REMARKS
JACKSON INTL   PTCLDY    77  69  76 SE3       30.00S
JACKSON HAWKNS CLEAR     79  68  69 CALM      30.00S
MADISON        FAIR      73  66  78 CALM      30.00S
MERIDIAN KEY   CLEAR     77  70  79 CALM      30.01R
MERIDIAN NAS   CLEAR     77  67  71 CALM      30.00S
VICKSBURG VKS  CLEAR     73  72  94 CALM      29.99S
$$

MSZ059>079-250400-
SOUTH MISSISSIPPI

CITY           SKY/WX    TMP DP  RH WIND       PRES   REMARKS
BROOKHAVEN     FAIR     N/A N/A N/A CALM      30.03S
COLUMBIA       FAIR      73  73 100 CALM      30.04S
HATTIESBURG    CLEAR     79  72  79 CALM      30.01S
LAUREL         FAIR      75  73  92 CALM      30.01R
MCCOMB         CLEAR     76  72  87 CALM      30.02R
NATCHEZ        CLEAR     75  72  88 S3        30.01R
PINE BELT      CLEAR     75  70  83 CALM      30.02S
$$

MSZ080>082-250400-
COASTAL MISSISSIPPI

CITY           SKY/WX    TMP DP  RH WIND       PRES   REMARKS
BILOXI         CLEAR     81  75  80 CALM      30.00R
PASCAGOULA     CLEAR     73  73 100 CALM      30.01R FOG
GULFPORT       CLEAR     78  74  87 CALM      30.00R
$$

LAZ007>009-015>016-023>026-250400-
NORTHEAST LOUISIANA

CITY           SKY/WX    TMP DP  RH WIND       PRES   REMARKS
BASTROP        FAIR      72  71  98 CALM      30.01R
TALLULAH/VBURG CLEAR     72  70  93 CALM      29.99S
$$




USA.gov is the U.S. government's official web portal to all federal, state and local government web resources and services.